Granite Falls, MN

6:56 AM CST on December 15, 2019 (GMT -0600)
Granite Falls

Weather History for KGDB - October, 2019

Change the Weather History Date:

Friday, October 4, 2019

  Actual Average (KMVE) Record (KMVE)
Temperature  
Mean Temperature 47 °F -  
Max Temperature 51 °F 66 °F 87 °F (1975)
Min Temperature 43 °F 40 °F 24 °F (1968)
Degree Days  
Heating Degree Days 18    
Moisture  
Dew Point 40 °F    
Average Humidity 79    
Maximum Humidity 91    
Minimum Humidity 65    
Precipitation  
Precipitation 0.15 in - - ()
Sea Level Pressure  
Sea Level Pressure 30.33 in    
Wind  
Wind Speed 4 mph (ESE)    
Max Wind Speed 16 mph    
Max Gust Speed 23 mph    
Visibility 10 miles    
Events Rain , Thunderstorm    
Averages and records for this station are not official NWS values.
T = Trace of Precipitation, MM = Missing Value Source: NWS Daily Summary

Daily Weather History Graph

Daily Weather History Graph

Search for Another Location

Airport or City:

Astronomy

Oct. 04, 2019 Rise Set
Actual Time 7:23 AM CDT 6:57 PM CDT
Civil Twilight 6:54 AM CDT 7:26 PM CDT
Nautical Twilight 6:20 AM CDT 8:00 PM CDT
Astronomical Twilight 5:46 AM CDT 8:34 PM CDT
Moon 2:10 PM CDT (10/4) 11:13 PM CDT (10/4)
Length of Visible Light 12h 32m
Length of Day
11h 33m
Waxing Crescent, 40% of the Moon is Illuminated
Oct 4
Waxing Crescent
Oct 5
First Quarter
Oct 13
Full
Oct 21
Last Quarter
Oct 27
New

Hourly Weather History & Observations

Time (CDT) Temp. Windchill Dew Point Humidity Pressure Visibility Wind Dir Wind Speed Gust Speed Precip Events Conditions
12:16 AM 43.7 °F - 38.1 °F 81% 30.42 in 10.0 mi Calm Calm - N/A   Overcast
12:35 AM 43.7 °F - 37.9 °F 80% 30.42 in 10.0 mi Calm Calm - N/A   Overcast
12:36 AM 43.7 °F - 37.9 °F 80% 30.42 in 10.0 mi Calm Calm - N/A   Overcast
12:55 AM 43.9 °F - 37.0 °F 77% 30.42 in 10.0 mi Calm Calm - N/A   Overcast
12:59 AM 43.9 °F - 37.2 °F 77% 30.42 in 10.0 mi Calm Calm - N/A   Overcast
1:16 AM 43.9 °F - 37.9 °F 80% 30.42 in 10.0 mi Calm Calm - N/A   Overcast
1:36 AM 43.7 °F - 38.1 °F 81% 30.42 in 10.0 mi Calm Calm - N/A   Overcast
1:55 AM 43.7 °F - 37.9 °F 80% 30.42 in 10.0 mi Calm Calm - N/A   Overcast
2:15 AM 44.2 °F - 36.7 °F 75% 30.43 in 10.0 mi Calm Calm - N/A   Overcast
2:19 AM 44.2 °F - 37.0 °F 76% 30.43 in 10.0 mi Calm Calm - N/A   Overcast
2:38 AM 44.1 °F - 37.8 °F 78% 30.44 in 10.0 mi Calm Calm - N/A   Overcast
2:55 AM 43.7 °F - 39.0 °F 84% 30.44 in 10.0 mi Calm Calm - N/A   Overcast
3:15 AM 43.7 °F - 39.2 °F 84% 30.43 in 10.0 mi Calm Calm - N/A   Overcast
3:16 AM 43.7 °F - 39.2 °F 84% 30.43 in 10.0 mi Calm Calm - N/A   Overcast
3:35 AM 43.7 °F - 39.6 °F 85% 30.43 in 10.0 mi Calm Calm - N/A   Overcast
3:58 AM 43.7 °F - 39.6 °F 85% 30.43 in 10.0 mi Calm Calm - N/A   Overcast
4:16 AM 43.7 °F - 39.9 °F 87% 30.43 in 10.0 mi Calm Calm - N/A   Overcast
4:35 AM 43.7 °F - 39.9 °F 87% 30.44 in 10.0 mi Calm Calm - N/A   Overcast
4:36 AM 43.7 °F - 39.9 °F 87% 30.44 in 10.0 mi Calm Calm - N/A   Overcast
4:55 AM 43.7 °F - 40.1 °F 87% 30.44 in 10.0 mi Calm Calm - N/A   Overcast
4:56 AM 43.7 °F - 40.1 °F 87% 30.44 in 10.0 mi Calm Calm - N/A   Overcast
5:15 AM 43.7 °F - 39.9 °F 87% 30.44 in 10.0 mi Calm Calm - N/A   Overcast
5:20 AM 43.7 °F - 40.1 °F 87% 30.44 in 10.0 mi Calm Calm - N/A   Overcast
5:37 AM 43.7 °F - 39.6 °F 85% 30.44 in 10.0 mi Calm Calm - N/A   Overcast
5:55 AM 43.7 °F - 39.7 °F 86% 30.44 in 10.0 mi Calm Calm - N/A   Overcast
6:15 AM 43.7 °F - 39.6 °F 85% 30.44 in 10.0 mi Calm Calm - N/A   Overcast
6:16 AM 43.7 °F - 39.6 °F 85% 30.44 in 10.0 mi Calm Calm - N/A   Overcast
6:35 AM 43.2 °F - 39.4 °F 86% 30.44 in 10.0 mi Calm Calm - N/A   Overcast
6:36 AM 43.3 °F - 39.4 °F 86% 30.44 in 10.0 mi Calm Calm - N/A   Overcast
6:59 AM 43.3 °F - 39.7 °F 87% 30.44 in 10.0 mi Calm Calm - N/A   Overcast
7:16 AM 43.7 °F - 39.4 °F 85% 30.44 in 10.0 mi Calm Calm - N/A   Overcast
7:36 AM 43.2 °F - 39.4 °F 86% 30.44 in 10.0 mi Calm Calm - N/A   Overcast
7:55 AM 43.7 °F - 39.7 °F 86% 30.44 in 10.0 mi Calm Calm - N/A   Overcast
7:56 AM 43.7 °F - 39.7 °F 86% 30.44 in 10.0 mi Calm Calm - N/A   Overcast
8:15 AM 43.7 °F - 39.7 °F 86% 30.44 in 10.0 mi Calm Calm - N/A   Overcast
8:19 AM 43.7 °F - 39.7 °F 86% 30.44 in 10.0 mi Calm Calm - N/A   Overcast
8:37 AM 43.9 °F 42.3 °F 39.9 °F 86% 30.44 in 10.0 mi East 3.5 mph - N/A   Overcast
8:56 AM 44.4 °F 42.0 °F 39.6 °F 83% 30.43 in 10.0 mi ESE 4.6 mph - N/A   Overcast
9:15 AM 45.1 °F 40.8 °F 39.4 °F 80% 30.43 in 10.0 mi ESE 8.1 mph - N/A   Overcast
9:16 AM 45.1 °F 40.3 °F 39.2 °F 80% 30.43 in 10.0 mi ESE 9.2 mph - N/A   Overcast
9:35 AM 45.7 °F 41.5 °F 38.7 °F 76% 30.43 in 10.0 mi ESE 8.1 mph - N/A   Overcast
9:36 AM 45.9 °F 41.2 °F 38.7 °F 76% 30.43 in 10.0 mi ESE 9.2 mph - N/A   Overcast
9:58 AM 46.4 °F 41.5 °F 38.1 °F 73% 30.43 in 10.0 mi ESE 10.4 mph 16.1 mph N/A   Overcast
10:16 AM 46.6 °F - 37.6 °F 71% 30.43 in 10.0 mi East 11.5 mph 17.3 mph N/A   Overcast
10:35 AM 46.9 °F - 38.3 °F 72% 30.42 in 10.0 mi ESE 11.5 mph 17.3 mph N/A   Overcast
10:55 AM 47.3 °F - 38.3 °F 71% 30.41 in 10.0 mi ESE 11.5 mph - N/A   Overcast
10:56 AM 47.3 °F - 38.3 °F 71% 30.41 in 10.0 mi ESE 11.5 mph - N/A   Overcast
11:15 AM 47.3 °F - 38.1 °F 70% 30.41 in 10.0 mi ESE 10.4 mph 17.3 mph N/A   Overcast
11:19 AM 47.3 °F - 38.3 °F 71% 30.41 in 10.0 mi ESE 12.7 mph 17.3 mph N/A   Overcast
11:38 AM 48.0 °F - 38.8 °F 71% 30.40 in 10.0 mi SE 15.0 mph - N/A   Overcast
11:55 AM 47.5 °F - 38.3 °F 70% 30.40 in 10.0 mi ESE 12.7 mph 19.6 mph N/A   Overcast
12:15 PM 47.5 °F - 38.8 °F 72% 30.40 in 10.0 mi ESE 10.4 mph 18.4 mph N/A   Overcast
12:16 PM 47.5 °F - 38.7 °F 71% 30.40 in 10.0 mi ESE 10.4 mph 18.4 mph N/A   Overcast
12:35 PM 48.2 °F - 39.2 °F 71% 30.39 in 10.0 mi SE 9.2 mph 17.3 mph N/A   Overcast
12:58 PM 48.2 °F - 39.0 °F 71% 30.38 in 10.0 mi ESE 11.5 mph 18.4 mph N/A   Overcast
1:17 PM 48.9 °F - 39.7 °F 71% 30.37 in 10.0 mi ESE 13.8 mph 17.3 mph N/A   Overcast
1:36 PM 49.1 °F - 40.3 °F 72% 30.36 in 10.0 mi ESE 9.2 mph - N/A   Overcast
1:55 PM 48.7 °F - 40.3 °F 73% 30.35 in 10.0 mi ESE 13.8 mph - N/A   Overcast
1:56 PM 48.7 °F - 40.3 °F 73% 30.34 in 10.0 mi ESE 12.7 mph - N/A   Overcast
2:15 PM 49.1 °F - 39.6 °F 70% 30.33 in 10.0 mi ESE 12.7 mph 17.3 mph N/A   Overcast
2:37 PM 48.9 °F - 39.9 °F 71% 30.33 in 10.0 mi ESE 12.7 mph 18.4 mph N/A   Overcast
2:55 PM 49.1 °F - 39.4 °F 69% 30.31 in 10.0 mi East 11.5 mph 17.3 mph N/A   Overcast
3:15 PM 49.3 °F - 39.4 °F 69% 30.31 in 10.0 mi ESE 13.8 mph 21.9 mph N/A   Overcast
3:35 PM 50.0 °F - 39.6 °F 67% 30.30 in 10.0 mi SE 15.0 mph 18.4 mph N/A   Overcast
3:36 PM 50.0 °F - 39.6 °F 67% 30.30 in 10.0 mi SE 13.8 mph 18.4 mph N/A   Overcast
3:59 PM 50.4 °F - 40.1 °F 68% 30.28 in 10.0 mi ESE 11.5 mph 18.4 mph N/A   Overcast
4:36 PM 50.9 °F - 39.9 °F 66% 30.25 in 10.0 mi East 16.1 mph 21.9 mph N/A   Mostly Cloudy
4:55 PM 51.1 °F - 40.1 °F 66% 30.23 in 10.0 mi ESE 13.8 mph 20.7 mph N/A   Scattered Clouds
5:15 PM 51.4 °F - 39.9 °F 65% 30.23 in 10.0 mi ESE 16.1 mph 23.0 mph N/A   Clear
5:37 PM 51.3 °F - 40.3 °F 66% 30.24 in 10.0 mi ESE 12.7 mph 18.4 mph N/A   Clear
5:56 PM 50.9 °F - 41.0 °F 69% 30.22 in 10.0 mi East 12.7 mph 18.4 mph N/A   Clear
6:15 PM 50.9 °F - 41.2 °F 69% 30.22 in 10.0 mi ESE 10.4 mph - N/A   Scattered Clouds
6:16 PM 50.7 °F - 41.0 °F 69% 30.22 in 10.0 mi ESE 9.2 mph - N/A   Scattered Clouds
6:35 PM 50.2 °F - 41.4 °F 72% 30.21 in 10.0 mi East 11.5 mph 16.1 mph N/A   Scattered Clouds
6:36 PM 50.2 °F - 41.4 °F 72% 30.20 in 10.0 mi East 11.5 mph - N/A   Scattered Clouds
6:58 PM 49.6 °F - 41.9 °F 75% 30.21 in 10.0 mi East 5.8 mph - N/A   Mostly Cloudy
7:16 PM 49.6 °F - 41.9 °F 75% 30.20 in 10.0 mi East 6.9 mph - N/A   Overcast
7:35 PM 49.5 °F - 41.9 °F 75% 30.20 in 10.0 mi East 5.8 mph - N/A   Overcast
7:36 PM 49.5 °F - 41.9 °F 75% 30.20 in 10.0 mi East 6.9 mph - N/A   Overcast
7:55 PM 50.0 °F - 42.3 °F 75% 30.19 in 10.0 mi East 8.1 mph - N/A   Overcast
7:56 PM 50.0 °F - 42.3 °F 75% 30.19 in 10.0 mi East 8.1 mph - N/A   Overcast
8:15 PM 49.8 °F - 42.6 °F 76% 30.18 in 10.0 mi East 8.1 mph - N/A   Overcast
8:19 PM 49.8 °F - 42.8 °F 77% 30.18 in 10.0 mi East 9.2 mph - N/A Rain Light Rain
8:38 PM 49.1 °F - 43.0 °F 79% 30.18 in 10.0 mi East 10.4 mph - N/A   Overcast
8:55 PM 48.4 °F - 43.7 °F 84% 30.16 in 7.0 mi East 11.5 mph 17.3 mph 0.03 in Rain Rain
9:15 PM 48.2 °F - 43.9 °F 85% 30.17 in 10.0 mi East 9.2 mph - 0.01 in   Drizzle
9:16 PM 48.2 °F - 43.9 °F 85% 30.17 in 10.0 mi East 8.1 mph - 0.01 in   Drizzle
9:35 PM 48.2 °F - 44.2 °F 86% 30.15 in 10.0 mi East 10.4 mph - 0.01 in Rain Light Rain
9:36 PM 48.2 °F - 44.2 °F 86% 30.15 in 10.0 mi East 10.4 mph - 0.01 in Rain Light Rain
10:16 PM 47.3 °F - 44.6 °F 90% 30.13 in 10.0 mi East 10.4 mph - 0.01 in Rain Light Rain
10:35 PM 47.3 °F - 44.8 °F 91% 30.11 in 10.0 mi East 12.7 mph 20.7 mph 0.02 in Rain Light Rain
10:36 PM 47.3 °F - 44.8 °F 91% 30.11 in 10.0 mi East 10.4 mph 20.7 mph 0.02 in Rain Light Rain
10:55 PM 47.5 °F - 45.0 °F 91% 30.11 in 10.0 mi East 8.1 mph - 0.06 in Rain Rain
10:56 PM 47.7 °F - 45.0 °F 90% 30.11 in 10.0 mi East 6.9 mph - 0.06 in Rain Rain
11:18 PM 48.2 °F - 45.0 °F 89% 30.10 in 10.0 mi East 8.1 mph 16.1 mph N/A Rain , Thunderstorm Light Thunderstorms and Rain
11:36 PM 48.2 °F - 45.1 °F 89% 30.08 in 7.0 mi East 12.7 mph 18.4 mph 0.03 in Rain , Thunderstorm Rain
11:55 PM 48.0 °F - 45.5 °F 91% 30.06 in 10.0 mi East 13.8 mph 20.7 mph 0.05 in Thunderstorm Overcast
11:56 PM 48.0 °F - 45.5 °F 91% 30.07 in 10.0 mi East 12.7 mph 20.7 mph 0.05 in Thunderstorm Overcast